This is the latest recevied weather packets stored in our database for station/object K7AEL. If no packets are shown the sender has not sent any weather packets the latest 10 day(s).
| Time | Temp. | Humidity | Pressure | Rain* | Wind** | Luminosity | Snow |
|---|---|---|---|---|---|---|---|
| 1777759149 | 32.78° C | 14% | 1012.8 hPa | 0 mm | - | 551 W/m² | - |
| 1777758847 | 32.78° C | 14% | 1013 hPa | 0 mm | - | 565 W/m² | - |
| 1777758543 | 32.78° C | 14% | 1012.8 hPa | 0 mm | - | 575 W/m² | - |
| 1777758240 | 32.78° C | 15% | 1013.3 hPa | 0 mm | - | 578 W/m² | - |
| 1777757937 | 32.78° C | 14% | 1013.5 hPa | 0 mm | - | 514 W/m² | - |
| 1777757634 | 32.22° C | 15% | 1013.5 hPa | 0 mm | - | 582 W/m² | - |
| 1777757333 | 32.22° C | 14% | 1013.6 hPa | 0 mm | - | 610 W/m² | - |
| 1777757031 | 32.22° C | 14% | 1013.5 hPa | 0 mm | - | 613 W/m² | - |
| 1777756728 | 32.78° C | 14% | 1013.6 hPa | 0 mm | - | 600 W/m² | - |
| 1777756423 | 32.22° C | 15% | 1013.6 hPa | 0 mm | - | 651 W/m² | - |
| 1777756121 | 31.67° C | 16% | 1013.5 hPa | 0 mm | - | 676 W/m² | - |
| 1777755818 | 31.11° C | 16% | 1013.6 hPa | 0 mm | - | 672 W/m² | - |
| 1777755515 | 32.22° C | 16% | 1013.7 hPa | 0 mm | - | 120 W/m² | - |
| 1777755211 | 32.22° C | 16% | 1013.9 hPa | 0 mm | - | 696 W/m² | - |
| 1777754908 | 32.78° C | 17% | 1014.1 hPa | 0 mm | - | 692 W/m² | - |
| 1777754606 | 32.78° C | 16% | 1014.2 hPa | 0 mm | - | 699 W/m² | - |
| 1777754303 | 32.78° C | 18% | 1014.1 hPa | 0 mm | - | 717 W/m² | - |
| 1777754000 | 31.67° C | 17% | 1014.1 hPa | 0 mm | - | 713 W/m² | - |
| 1777753695 | 31.67° C | 17% | 1014.1 hPa | 0 mm | - | 707 W/m² | - |
| 1777753393 | 31.67° C | 18% | 1014.2 hPa | 0 mm | - | 723 W/m² | - |
| 1777753091 | 32.22° C | 17% | 1014.4 hPa | 0 mm | - | 737 W/m² | - |
| 1777752787 | 32.78° C | 18% | 1014.3 hPa | 0 mm | - | 735 W/m² | - |
| 1777752483 | 31.11° C | 18% | 1014.2 hPa | 0 mm | - | 733 W/m² | - |
| 1777752179 | 32.22° C | 19% | 1014.7 hPa | 0 mm | - | 744 W/m² | - |
| 1777751877 | 31.67° C | 19% | 1014.4 hPa | 0 mm | - | 747 W/m² | - |
* Rain latest hour (hover to see other rain measurements)
** Current wind speed in m/s (hover to see current wind gust speed)